Vorticity
6 5 7 7 4 3 6 2 4 3 2 6 3 4 6 7 9 8 10 9 6 5 5 5 5 9 10 8 7 7 4 4 6 6 7 5 4 4 4 3 -0 -1 1 6 8 5 6 6 6 5 3 5 6 5 6 6 3 3 5 6 6 6 7 5 5 4 4 6 7 7 7 7 7 7 7 6 6 6 7 7 6 7 6 6 5 5 5 6 6 5 5 5 5 5 5 5 5
5 5 5 3 4 4 5 3 6 0 -1 11 5 5 7 6 8 8 12 12 10 7 6 7 10 11 8 8 7 4 3 4 6 5 7 5 5 7 4 4 2 -1 4 10 9 7 7 7 7 6 6 6 4 6 5 4 4 5 6 5 6 7 6 5 5 5 7 8 7 8 8 9 8 7 7 7 7 7 7 6 6 7 6 6 5 5 4 4 4 3 3 3 5 6 6 6 5
10 5 5 5 7 6 8 4 8 -1 -4 13 7 5 8 5 8 10 12 12 11 8 7 8 10 9 6 7 3 2 3 2 5 7 6 4 3 6 4 4 3 1 8 11 8 7 6 7 8 7 7 5 6 6 3 5 6 5 5 5 6 6 5 6 7 8 8 7 7 8 8 8 7 6 6 6 7 6 7 6 6 6 6 6 6 6 5 5 5 4 4 3 4 4 7 8 6
12 8 6 8 8 7 7 4 7 2 -0 8 4 6 8 5 7 9 12 10 8 7 8 8 8 7 4 3 2 3 4 3 6 7 7 3 2 7 6 2 4 5 7 8 7 6 5 6 8 8 6 5 5 4 4 7 5 5 5 6 7 6 7 8 8 8 7 6 7 7 7 7 7 7 7 8 7 7 6 6 6 5 6 6 6 6 6 6 6 7 7 6 5 5 6 7 8
12 11 8 8 7 5 5 7 7 0 3 6 3 8 7 6 6 7 10 9 7 7 8 6 6 5 2 1 4 5 3 5 6 6 6 4 3 8 8 4 5 7 8 9 6 6 6 7 8 6 4 5 4 4 6 6 5 5 5 7 7 7 8 8 8 7 6 6 7 6 7 7 8 8 8 9 9 9 9 8 7 6 5 5 5 5 5 6 6 7 8 7 6 6 6 7 9
5 6 7 7 6 6 6 8 5 2 7 6 4 8 7 6 6 8 9 9 8 7 7 4 3 3 3 2 2 2 2 5 6 7 7 5 5 6 8 6 7 7 7 7 6 7 7 6 6 3 4 5 4 5 7 6 5 6 7 8 8 8 8 8 7 6 6 7 6 6 7 7 7 7 7 7 8 8 9 10 10 9 7 5 5 5 6 6 6 6 7 8 7 6 5 5 7
-3 1 5 4 3 5 4 5 5 5 7 4 5 8 5 5 5 7 9 10 9 9 7 2 1 3 3 2 2 2 4 7 6 7 6 6 6 5 9 8 7 7 5 5 5 7 6 5 4 4 5 5 5 6 7 6 6 7 8 9 8 8 8 7 6 6 7 6 7 7 7 7 7 6 6 7 7 8 9 10 11 13 11 8 7 6 6 7 6 5 6 7 7 7 6 5 4
3 5 5 3 3 5 3 5 5 4 4 3 5 6 5 5 4 4 6 9 9 8 5 1 -0 -0 2 2 4 5 4 6 5 6 6 8 7 6 9 8 7 7 5 4 5 6 6 4 3 5 6 6 7 7 7 7 7 8 8 9 8 8 7 6 6 7 7 7 8 8 8 9 9 9 8 8 9 10 11 11 12 14 13 11 10 7 6 6 6 6 7 7 7 7 7 7 5
6 5 6 5 6 6 4 5 5 4 4 4 4 3 4 4 5 4 3 4 6 6 3 3 -1 -1 5 4 4 5 4 5 5 6 7 9 10 8 8 6 7 7 6 5 6 7 5 4 6 7 7 8 8 7 7 7 8 8 9 8 7 7 6 6 6 7 8 9 10 10 10 10 10 9 9 9 10 11 11 11 12 12 12 12 12 9 5 5 6 7 7 8 8 8 7 7 6
6 5 6 7 5 5 5 6 6 7 5 5 6 4 4 4 5 5 4 3 4 5 4 4 2 2 5 3 4 5 4 5 5 6 6 8 10 8 5 4 5 6 6 6 7 6 4 6 7 7 8 9 8 8 7 7 8 9 9 8 7 7 5 5 6 7 9 9 10 10 10 9 9 8 8 9 9 11 10 9 10 12 13 13 12 10 7 6 7 7 8 8 8 8 8 8 8
7 5 5 5 5 4 5 5 5 6 6 6 6 4 5 6 6 7 7 6 4 4 5 5 4 4 3 3 3 3 4 4 4 6 7 9 8 5 4 3 3 4 6 7 7 6 6 7 7 8 9 9 8 7 7 8 9 9 8 8 7 6 5 6 7 9 9 8 9 9 9 9 8 7 8 8 9 10 10 10 10 11 11 11 11 10 10 10 10 11 12 13 13 13 12 10 10
7 5 5 3 3 3 2 5 5 5 6 5 5 3 3 5 7 8 8 7 7 7 7 6 6 7 5 3 4 4 4 2 3 5 6 8 7 4 5 5 3 3 5 7 8 9 9 8 8 9 10 9 8 7 7 8 8 8 8 7 7 5 5 6 8 8 8 8 8 8 9 8 8 8 8 8 8 9 10 10 10 10 10 10 11 12 12 12 11 11 12 14 15 17 18 16 13
6 5 6 4 3 2 1 3 6 5 6 6 6 5 2 4 6 8 8 6 6 8 10 9 7 9 7 5 7 8 6 3 2 3 4 7 5 3 5 4 3 4 5 8 10 10 9 8 9 10 9 8 7 6 8 8 7 8 8 8 6 5 6 7 8 7 6 7 7 8 8 8 9 9 9 9 9 9 10 10 11 11 11 11 10 11 9 8 8 8 9 11 13 15 18 20 18
5 6 8 9 6 4 3 1 5 6 6 7 7 8 6 5 8 8 7 7 7 8 8 8 5 6 7 5 7 8 9 7 3 1 2 5 5 3 4 2 2 4 5 10 11 9 8 7 10 11 9 8 6 7 9 8 7 8 8 7 6 5 7 8 7 5 6 6 6 8 8 9 9 9 9 9 9 9 9 9 9 8 9 9 8 7 6 6 7 9 10 10 10 10 12 15 16
3 7 8 8 6 6 5 1 5 5 3 8 8 9 9 7 9 7 6 8 10 9 8 8 5 5 6 4 5 8 10 10 6 1 -1 2 5 5 3 -0 1 3 4 12 11 7 8 8 10 11 9 7 6 8 9 7 7 8 7 6 5 7 8 7 6 5 6 6 7 8 8 8 7 7 7 7 8 7 7 7 6 7 7 7 7 6 6 5 5 7 8 8 7 8 9 10 11
1 5 8 4 2 5 4 2 6 3 1 8 8 8 9 9 8 5 5 6 7 9 9 8 6 7 7 5 5 6 7 11 9 3 -0 0 3 4 2 -0 2 2 5 12 11 7 8 8 10 10 9 7 8 10 9 7 6 6 6 5 6 8 7 6 5 5 6 6 7 8 7 6 5 5 5 5 5 5 5 5 5 5 4 4 4 4 3 3 2 3 3 4 4 5 6 7 8
0 3 6 2 1 2 2 2 4 3 5 8 8 8 8 10 8 4 5 5 5 6 7 7 7 8 7 6 6 5 4 8 10 6 3 2 2 3 1 1 3 3 5 13 11 8 8 8 9 10 8 8 10 11 9 7 6 6 6 6 8 7 6 5 5 6 6 6 7 7 6 6 5 4 4 4 3 3 4 3 3 3 3 3 3 3 4 3 3 3 3 3 3 3 3 4 5
-0 1 3 3 2 3 3 3 2 1 6 6 8 8 6 10 10 6 5 5 4 3 6 7 7 7 7 8 8 6 3 4 9 9 6 4 3 3 3 2 4 4 6 13 11 7 8 8 9 9 8 9 11 10 8 7 7 7 7 8 8 6 5 5 5 6 5 6 6 5 5 5 4 3 3 3 3 3 3 4 4 3 5 4 5 5 5 5 5 6 6 5 5 5 5 4 4
-1 1 2 3 3 3 4 5 4 2 3 6 10 9 6 9 13 12 8 7 6 4 6 6 5 5 7 9 9 8 4 1 4 8 9 8 5 2 2 3 5 4 7 12 9 7 8 7 9 9 8 11 12 10 7 7 8 8 8 8 7 5 5 5 4 5 5 5 4 4 4 3 3 3 3 3 4 4 5 5 4 5 6 5 5 5 5 6 6 6 7 7 7 7 7 6 6
-2 3 3 3 3 3 4 5 6 5 3 7 11 12 8 7 10 12 10 11 9 4 5 6 5 5 5 6 8 10 7 3 1 3 9 10 6 3 1 4 6 5 8 11 8 7 8 7 8 9 9 12 12 9 6 7 8 9 9 8 6 5 5 4 5 5 5 4 4 3 3 3 3 3 4 4 5 5 5 5 5 6 6 6 6 6 6 6 5 5 6 7 7 7 7 7 7
-1 4 5 3 3 2 3 3 5 6 5 6 10 12 10 9 9 8 11 14 10 7 8 9 7 4 3 3 6 10 9 9 5 1 6 8 5 2 1 5 6 5 8 10 7 7 10 9 8 9 9 12 12 8 6 7 8 9 9 7 5 5 5 5 4 4 5 4 4 3 3 3 4 4 5 5 5 5 5 5 5 5 5 6 5 5 5 5 6 5 5 5 5 5 6 7 6
2 5 8 4 3 2 3 2 2 6 8 6 7 9 9 12 10 7 9 10 11 12 11 11 9 5 5 6 7 7 6 8 9 4 3 5 4 1 1 5 7 6 8 9 6 7 10 10 9 9 9 11 11 8 7 7 8 9 8 6 6 5 5 5 4 4 4 4 4 3 3 4 4 5 6 6 6 6 5 5 5 5 5 5 4 5 5 5 5 4 3 3 4 3 4 6 6
3 5 10 6 2 3 3 3 3 5 9 8 8 8 10 13 10 9 6 2 7 14 12 9 8 7 7 8 7 6 7 7 8 8 4 4 5 3 4 7 8 7 9 9 6 7 10 10 9 8 9 10 11 8 7 7 7 9 7 6 6 5 5 5 4 4 4 3 4 3 4 4 5 6 6 5 5 5 5 5 5 5 5 5 5 4 4 5 4 3 4 4 6 5 3 4 5
5 6 11 6 3 5 3 4 4 4 5 7 9 8 11 14 11 11 7 2 7 8 8 8 5 7 6 6 7 6 9 9 8 8 7 7 8 9 10 10 8 7 10 9 6 8 9 10 9 7 9 10 10 8 7 7 7 8 7 6 6 6 6 4 4 3 3 4 3 4 4 4 5 5 5 5 5 5 5 5 5 6 6 5 6 5 5 6 3 2 5 5 6 5 3 3 4
7 6 10 8 4 3 4 4 2 3 4 5 9 8 12 14 10 11 9 8 12 4 2 5 4 5 5 6 8 9 10 10 9 8 7 8 8 10 11 11 8 7 10 8 6 9 10 9 8 8 10 10 9 7 6 7 8 7 7 7 6 6 5 4 3 3 3 3 4 4 4 4 4 4 5 4 5 5 6 6 5 5 6 5 5 6 5 6 4 4 6 7 6 4 5 5 3
6 5 8 9 7 4 3 4 2 3 4 5 10 10 14 17 12 11 10 10 13 7 3 4 3 5 5 6 8 9 11 12 12 11 9 9 8 8 9 9 7 8 9 7 6 8 10 9 7 8 11 10 8 6 5 7 8 7 6 7 7 6 5 4 3 3 3 3 4 5 5 5 4 4 4 5 5 5 5 5 4 3 4 4 5 5 5 6 5 5 6 6 5 4 5 5 2
6 4 5 6 8 6 2 3 3 3 5 8 12 11 14 17 12 9 9 10 10 9 7 5 5 7 8 8 7 7 9 12 13 10 10 9 8 8 10 9 7 9 9 6 6 9 10 8 7 9 10 9 8 6 5 7 8 6 5 6 7 6 5 3 3 4 3 4 5 5 6 5 5 5 4 5 5 5 5 4 4 3 2 3 3 3 4 5 5 5 6 4 5 5 4 4 4
4 2 4 4 6 6 3 4 3 3 8 10 12 12 12 13 11 9 10 11 12 12 11 10 8 8 9 9 7 6 5 7 9 9 8 7 7 10 11 10 8 9 8 5 6 9 10 7 6 8 9 9 8 7 5 6 8 6 6 6 6 6 5 4 4 4 4 4 5 6 7 6 5 5 5 5 4 5 5 5 5 4 4 4 4 4 4 5 5 5 6 5 5 6 5 4 4
2 3 5 2 4 7 5 5 2 3 10 10 11 9 7 8 6 8 10 10 11 12 13 13 10 9 10 10 7 6 5 5 6 9 11 10 8 11 13 11 11 10 7 6 6 8 10 7 5 6 8 9 8 7 6 7 8 7 7 6 5 6 5 4 4 4 4 4 6 6 7 6 5 5 5 5 4 5 5 5 5 5 6 5 5 5 5 6 6 5 5 5 4 4 5 6 6
1 4 6 5 4 4 7 7 -1 0 9 9 6 2 8 15 5 3 9 8 8 9 11 12 10 10 9 10 9 7 6 6 6 8 13 14 10 12 13 12 13 11 6 6 5 7 10 7 4 5 7 8 8 8 7 7 8 8 7 6 5 5 4 4 4 5 5 5 6 6 6 6 5 5 5 5 5 5 6 6 5 4 4 4 4 4 5 6 7 7 6 4 4 4 4 7 8
4 4 6 8 4 2 10 10 -1 -4 4 9 5 -4 6 18 6 3 8 6 6 6 8 9 9 11 9 9 11 10 8 7 7 9 13 15 13 12 11 12 14 11 6 6 5 6 10 9 6 5 7 8 9 8 8 8 8 8 6 5 5 5 4 4 4 4 5 6 6 5 6 6 6 6 6 5 5 5 4 3 2 3 4 4 4 4 5 6 7 8 8 7 6 5 4 6 7
4 6 7 7 5 5 10 10 3 -2 -0 6 7 -0 4 12 8 9 9 4 4 3 3 5 6 9 9 9 9 11 11 8 8 12 14 14 13 12 9 12 14 10 7 6 5 5 8 9 7 6 8 9 9 9 9 8 8 7 5 5 4 4 5 4 5 4 4 6 6 5 6 6 6 6 6 5 4 3 2 2 3 4 4 5 5 6 6 8 10 10 10 11 9 6 6 6 5
2 10 10 7 8 6 8 9 4 1 -0 1 6 4 3 13 16 11 7 3 3 3 3 2 2 5 8 9 8 9 12 11 12 15 16 13 11 11 9 13 12 8 8 6 3 4 6 8 8 7 9 9 9 9 9 9 8 7 6 5 4 4 5 4 5 5 5 6 6 5 6 6 6 5 5 4 2 2 2 3 4 4 5 6 7 7 8 10 12 11 12 13 12 9 8 6 6
2 9 10 11 13 8 5 9 6 2 -1 -1 9 3 -5 11 19 9 6 5 3 3 3 2 0 1 2 6 7 7 10 12 16 20 17 11 10 10 10 13 10 6 8 6 3 4 6 8 8 8 8 9 8 8 8 8 7 7 7 6 5 5 5 5 5 5 5 5 6 6 5 6 6 5 4 3 2 3 3 4 5 5 6 7 8 9 10 12 13 12 12 12 12 11 9 8 7
2 3 8 10 13 9 4 6 8 5 -1 0 13 6 -3 11 14 4 6 4 2 2 3 4 3 3 1 2 5 6 9 10 15 21 17 11 10 9 12 12 8 7 8 7 4 3 5 6 8 9 8 7 7 7 7 6 7 6 6 6 5 5 5 5 5 4 4 4 6 7 6 6 5 4 3 2 3 4 4 5 6 8 9 10 11 10 12 14 13 12 10 10 11 11 10 11 10
4 2 8 9 11 10 3 5 7 6 3 2 13 12 4 11 8 3 7 2 2 3 4 6 5 5 3 1 3 4 7 8 11 18 16 12 11 9 13 13 7 7 8 7 5 4 4 4 6 9 9 7 6 7 7 6 6 5 5 5 5 4 4 5 5 5 5 6 7 8 7 6 5 4 3 3 4 4 6 7 8 10 11 11 10 10 12 13 12 11 10 10 11 10 11 12 12
6 3 6 7 10 10 3 6 7 6 6 -1 11 18 6 6 6 4 6 2 3 4 3 5 3 4 4 1 2 3 5 8 7 14 15 12 11 8 12 14 9 7 7 7 6 6 5 4 5 9 10 9 7 6 7 7 6 5 5 5 5 5 6 6 6 7 8 9 10 9 7 5 4 4 4 4 4 5 7 8 9 10 10 9 8 8 9 9 10 10 10 10 10 9 10 11 11
8 4 4 3 10 13 3 3 6 5 6 1 11 21 6 2 5 1 4 2 1 2 0 1 0 1 3 1 2 4 5 7 6 11 14 12 11 9 9 13 11 8 7 7 6 7 6 5 6 8 8 8 9 7 6 6 6 5 5 5 6 6 6 6 6 8 10 10 11 9 6 5 4 4 4 4 5 6 7 8 10 9 7 6 6 6 6 6 7 7 7 6 6 6 6 7 7
11 7 7 7 12 16 3 -0 6 2 2 1 8 19 9 1 4 1 2 1 -1 0 -1 -0 1 -0 1 1 3 5 4 6 6 9 14 15 12 9 8 10 11 9 7 7 7 7 6 6 6 7 6 6 8 9 7 8 7 6 6 6 7 7 7 6 6 8 9 10 10 8 6 5 4 4 4 4 5 6 7 7 9 8 5 6 6 6 6 5 5 5 5 4 5 6 7 7 7
11 10 8 6 6 14 9 1 5 2 -0 -1 3 18 16 2 3 2 -1 -0 -0 2 2 1 3 1 -1 0 3 3 3 5 6 7 11 16 16 12 9 9 10 8 6 6 7 7 7 6 6 7 7 5 7 9 9 9 8 8 8 7 7 8 8 6 6 8 9 9 8 6 6 5 4 4 3 4 4 6 7 6 8 6 5 6 6 6 7 5 5 5 5 7 8 8 7 6 5
10 10 8 6 1 7 12 5 6 6 1 -2 -3 14 24 8 -0 1 -3 0 1 0 2 1 2 3 -1 -1 4 5 4 3 5 6 8 15 18 15 11 8 8 7 6 6 6 8 8 7 8 9 8 7 7 9 9 9 9 9 9 8 8 8 8 7 7 8 9 8 6 6 5 4 3 3 4 3 3 6 7 6 7 6 5 6 5 7 8 8 6 6 7 8 7 7 7 6 5
9 10 7 7 2 2 7 7 12 12 3 -2 -5 8 28 18 -1 -2 -0 3 3 0 2 3 2 4 1 1 4 6 6 3 4 6 6 13 18 16 15 10 7 6 6 6 7 8 9 8 10 10 8 8 8 8 9 9 9 9 9 8 7 7 8 8 8 8 8 7 5 5 4 3 2 3 3 3 3 5 6 7 7 6 5 6 5 6 9 9 7 7 8 6 5 7 8 7 7
9 10 7 8 9 5 4 3 8 15 10 0 -5 1 19 23 6 -0 7 8 3 0 2 4 3 4 6 8 6 4 5 3 3 6 6 10 15 15 16 13 8 6 5 6 8 9 9 8 8 8 7 8 8 8 8 8 8 7 8 8 7 6 6 8 9 9 8 6 5 5 3 2 3 3 4 3 3 4 5 7 7 6 6 6 5 6 10 9 7 6 6 5 7 9 9 7 6
11 11 9 8 10 8 7 4 1 10 14 4 0 0 7 23 17 2 6 8 1 0 1 3 6 7 7 8 8 6 5 3 3 5 6 8 13 14 14 13 9 5 5 7 7 8 8 7 6 7 7 7 7 7 6 6 7 6 7 8 7 7 7 7 7 8 8 6 4 3 2 2 2 3 4 4 3 3 4 7 7 6 6 6 4 6 10 9 6 6 5 7 9 8 5 4 4
15 13 11 6 6 9 8 8 5 6 9 5 5 4 1 24 33 14 6 4 -1 0 1 5 8 5 3 3 6 7 7 6 4 5 6 6 9 14 14 12 9 5 5 7 8 9 10 8 7 7 7 7 6 6 5 4 6 6 6 7 8 9 8 7 6 6 7 6 4 3 1 2 3 4 4 4 3 3 4 6 9 8 6 6 5 6 10 9 6 5 6 7 7 3 2 4 5
12 14 18 8 3 10 5 6 11 2 -0 6 12 6 -8 8 33 25 10 4 1 1 2 7 8 2 2 3 3 5 6 8 5 3 6 6 7 12 15 13 10 8 7 8 9 10 10 9 8 7 6 7 6 6 5 4 5 5 5 7 8 8 8 8 8 6 7 7 6 5 2 1 3 4 5 4 3 4 4 6 9 10 8 7 5 5 9 9 6 5 6 7 4 2 3 5 7
6 14 23 11 2 7 2 3 7 -8 -7 11 18 9 -10 1 34 34 18 10 4 2 2 4 5 2 3 3 2 4 5 7 7 3 4 7 7 10 15 15 12 10 9 9 9 9 9 7 6 6 6 6 6 5 4 4 4 4 6 7 7 7 7 7 8 8 7 6 6 6 5 4 3 4 5 4 3 4 5 6 8 10 11 9 5 5 8 9 6 4 6 6 3 4 6 8 9
2 12 17 12 6 5 3 5 1 -12 0 16 16 12 -1 5 30 29 23 27 12 -2 1 4 2 2 4 2 2 4 4 5 6 3 3 5 7 9 13 16 15 12 9 8 7 6 6 6 4 5 5 5 5 5 4 4 4 4 5 5 5 6 6 5 6 7 7 7 6 6 6 5 5 5 5 4 4 5 5 4 6 10 12 10 6 5 7 9 7 4 6 5 3 6 8 10 11
2 7 7 9 10 8 7 8 -2 -9 8 17 15 22 9 -1 14 18 25 43 31 2 -1 6 4 3 4 2 2 4 4 5 5 5 4 5 7 8 11 13 14 13 11 9 9 8 7 7 7 7 7 7 7 6 6 5 5 5 6 6 7 7 7 5 5 6 6 7 6 6 5 5 5 5 5 5 5 5 4 3 4 8 11 10 8 7 7 9 8 5 6 4 4 7 9 11 11
5 6 3 6 10 9 8 8 3 0 8 7 7 21 13 -2 13 28 28 40 41 16 3 7 5 3 5 3 3 4 4 4 4 5 5 4 5 7 9 11 11 12 12 10 10 9 9 9 9 9 8 7 7 7 7 6 6 6 7 9 9 8 8 7 7 6 7 8 7 6 5 5 5 4 5 6 6 5 3 2 3 6 9 10 10 8 7 9 8 6 6 5 5 7 8 9 8
8 7 4 4 6 7 6 5 5 6 7 5 11 23 19 9 19 31 28 31 38 23 7 6 5 5 7 3 1 4 4 5 6 5 4 3 4 6 8 9 9 11 11 10 10 9 9 8 8 7 7 7 6 6 7 7 7 7 7 7 7 6 6 7 7 6 6 7 8 8 7 5 5 5 6 7 6 6 4 3 2 4 8 11 11 8 7 9 7 5 6 5 5 7 7 7 5
10 8 7 6 6 9 9 4 3 8 8 6 13 18 14 18 28 30 26 25 30 27 15 5 5 7 5 -0 1 5 4 3 5 5 5 4 3 5 7 6 5 8 9 9 9 8 8 8 8 7 7 7 7 7 7 6 6 6 5 5 5 5 4 5 6 5 5 6 6 8 9 7 5 5 6 7 7 6 4 4 2 2 5 9 11 9 7 9 8 6 6 6 6 8 7 5 3
11 11 10 8 8 8 7 4 2 4 5 3 10 13 7 10 17 17 19 20 20 25 20 6 2 6 4 0 2 4 3 3 4 7 7 6 4 5 7 5 4 6 6 6 7 8 8 8 8 8 8 8 7 6 7 6 5 4 4 4 4 4 3 3 4 5 5 5 5 5 7 7 7 6 5 6 8 7 5 4 3 2 3 6 11 11 8 8 8 6 6 6 6 8 8 4 3
7 9 9 9 10 7 3 6 5 5 9 11 12 12 7 10 13 13 17 20 18 21 19 10 6 6 3 3 3 3 3 4 6 8 8 6 5 6 8 7 6 6 5 4 4 7 8 7 8 8 8 8 7 6 6 5 5 4 3 4 4 4 4 3 3 4 4 4 4 4 5 5 6 6 5 5 6 7 5 4 3 2 1 4 9 12 9 7 8 7 6 7 7 8 8 4 3
3 3 6 10 11 8 4 4 6 6 7 7 9 11 12 16 19 15 14 17 19 20 16 12 11 7 2 3 5 4 2 3 5 6 7 9 9 10 10 8 7 8 7 6 5 5 5 5 6 6 6 7 8 7 6 5 5 5 4 4 4 4 4 4 4 4 3 4 4 4 4 4 5 5 5 5 6 7 7 5 4 2 0 1 7 12 11 8 7 6 7 7 7 8 7 3 3
2 1 2 5 7 8 7 4 3 4 3 3 6 9 13 17 15 12 13 14 13 13 11 11 13 11 6 6 8 4 1 5 6 2 4 9 12 12 11 10 8 7 6 6 7 5 2 2 4 4 4 6 6 6 6 6 6 6 6 5 5 5 6 6 5 4 4 4 4 4 4 3 4 4 5 5 6 8 8 6 5 4 1 -0 3 9 12 10 7 5 7 7 6 8 7 3 2
3 3 1 1 4 4 5 6 4 5 8 9 8 9 19 27 20 12 14 12 8 9 10 10 13 14 10 9 8 4 4 8 6 1 3 7 9 10 10 8 7 6 5 7 7 3 2 3 2 2 4 4 4 6 7 7 7 7 7 7 7 7 7 7 6 6 6 5 5 5 4 3 3 3 4 5 5 7 8 7 6 6 4 1 0 6 11 12 8 5 6 7 6 7 7 3 2
4 3 2 3 5 2 1 3 2 1 2 5 10 11 14 19 16 11 14 15 12 11 10 9 13 15 13 11 9 7 8 9 4 2 6 6 4 5 8 9 8 7 6 8 7 3 2 3 1 2 4 3 4 7 8 9 9 8 8 9 8 8 7 7 8 8 9 8 8 7 6 5 4 4 3 4 4 6 8 8 7 6 6 2 -0 3 9 13 11 6 6 7 6 7 7 4 2
Height
5901 5901 5900 5900 5900 5901 5900 5900 5900 5900 5901 5901 5900 5901 5901 5901 5901 5900 5900 5900 5901 5901 5902 5902 5903 5903 5903 5903 5904 5905 5905 5906 5906 5906 5906 5906 5906 5906 5907 5907 5908 5909 5909 5909 5908 5908 5908 5908 5909 5910 5911 5911 5911 5911 5911 5912 5912 5913 5913 5914 5915 5915 5915 5914 5914 5914 5914 5914 5915 5915 5915 5915 5915 5914 5914 5914 5914 5914 5914 5914 5915 5915 5915 5915 5915 5915 5915 5915 5915 5915 5915 5915 5915 5915 5916 5917 5917
5901 5901 5901 5901 5901 5901 5901 5901 5901 5902 5903 5902 5901 5901 5902 5902 5901 5901 5901 5901 5901 5902 5903 5903 5903 5904 5904 5904 5904 5905 5905 5906 5906 5907 5907 5907 5907 5907 5907 5908 5909 5909 5910 5910 5909 5909 5909 5909 5910 5911 5912 5912 5912 5912 5912 5913 5913 5914 5914 5915 5915 5915 5915 5914 5914 5914 5915 5915 5916 5916 5916 5915 5915 5915 5914 5914 5914 5914 5915 5915 5915 5915 5915 5915 5915 5915 5916 5916 5916 5916 5916 5916 5916 5917 5917 5918 5918
5902 5902 5902 5902 5902 5902 5902 5902 5902 5902 5902 5902 5902 5902 5902 5903 5902 5902 5902 5902 5902 5903 5903 5904 5904 5904 5904 5904 5905 5905 5906 5907 5907 5907 5907 5907 5907 5907 5908 5909 5909 5910 5910 5910 5910 5910 5910 5911 5912 5912 5913 5913 5913 5913 5913 5913 5913 5914 5915 5915 5915 5915 5915 5914 5915 5915 5915 5916 5916 5916 5916 5916 5915 5915 5915 5915 5915 5915 5916 5916 5916 5916 5916 5916 5916 5916 5916 5916 5916 5917 5917 5917 5917 5918 5918 5918 5918
5903 5903 5903 5902 5902 5902 5902 5903 5903 5902 5902 5902 5903 5903 5903 5903 5903 5903 5903 5903 5903 5903 5904 5904 5905 5905 5905 5905 5905 5905 5906 5907 5908 5908 5908 5908 5908 5908 5908 5909 5909 5910 5911 5911 5911 5911 5911 5912 5913 5913 5914 5914 5913 5914 5914 5914 5914 5915 5915 5915 5915 5915 5914 5915 5915 5915 5916 5916 5916 5916 5916 5916 5916 5915 5915 5915 5915 5916 5916 5916 5916 5916 5916 5917 5917 5917 5917 5917 5917 5917 5918 5918 5918 5918 5919 5919 5919
5903 5904 5904 5903 5903 5903 5903 5904 5904 5904 5903 5903 5903 5904 5904 5904 5904 5904 5904 5903 5903 5904 5904 5905 5905 5905 5905 5905 5906 5906 5906 5907 5908 5908 5909 5909 5909 5908 5909 5909 5910 5910 5911 5912 5912 5913 5913 5913 5914 5914 5914 5914 5914 5914 5914 5914 5915 5915 5916 5916 5915 5915 5915 5915 5915 5916 5916 5916 5917 5917 5917 5916 5916 5916 5916 5916 5916 5916 5916 5916 5916 5916 5917 5917 5917 5917 5917 5917 5918 5918 5918 5918 5918 5919 5919 5919 5919
5904 5904 5904 5904 5904 5904 5904 5904 5905 5905 5904 5905 5905 5905 5905 5905 5905 5905 5905 5904 5904 5905 5905 5905 5905 5906 5906 5906 5907 5907 5907 5908 5908 5909 5909 5909 5909 5909 5909 5910 5910 5911 5911 5912 5913 5913 5913 5914 5914 5915 5915 5915 5915 5914 5914 5914 5915 5916 5916 5916 5915 5915 5915 5915 5915 5916 5916 5917 5917 5917 5917 5917 5917 5917 5917 5917 5917 5917 5917 5917 5917 5917 5917 5917 5917 5918 5918 5918 5918 5918 5919 5919 5919 5919 5919 5919 5919
5904 5905 5905 5905 5905 5905 5905 5905 5906 5906 5906 5906 5906 5906 5906 5906 5906 5906 5906 5906 5906 5906 5906 5906 5906 5906 5907 5907 5907 5907 5908 5908 5909 5909 5910 5910 5910 5910 5910 5910 5910 5911 5911 5912 5912 5913 5913 5914 5914 5915 5915 5915 5915 5914 5914 5915 5916 5916 5916 5916 5915 5915 5915 5915 5916 5916 5917 5917 5917 5917 5917 5917 5917 5917 5917 5917 5917 5917 5917 5917 5917 5917 5917 5918 5918 5918 5918 5918 5919 5919 5919 5919 5919 5919 5919 5919 5919
5905 5905 5905 5905 5905 5906 5906 5906 5907 5907 5907 5907 5907 5907 5907 5907 5907 5906 5906 5906 5907 5907 5907 5906 5906 5907 5907 5907 5908 5908 5908 5909 5909 5909 5910 5910 5910 5911 5911 5911 5911 5911 5912 5912 5912 5913 5914 5914 5914 5914 5915 5915 5914 5914 5915 5916 5917 5917 5916 5916 5915 5916 5916 5916 5916 5916 5917 5917 5917 5917 5917 5917 5917 5917 5917 5917 5917 5917 5917 5917 5917 5917 5918 5918 5918 5919 5919 5919 5919 5920 5920 5920 5920 5920 5920 5920 5920
5905 5905 5905 5905 5906 5906 5906 5907 5907 5907 5907 5907 5907 5907 5907 5907 5907 5907 5907 5907 5908 5908 5908 5908 5907 5907 5907 5907 5908 5908 5908 5909 5909 5910 5910 5911 5911 5911 5911 5911 5912 5912 5912 5913 5913 5913 5914 5914 5914 5914 5914 5914 5915 5915 5916 5917 5917 5917 5916 5916 5916 5916 5916 5916 5916 5917 5917 5917 5917 5917 5917 5917 5917 5917 5917 5918 5918 5918 5918 5918 5918 5918 5918 5919 5919 5919 5919 5920 5920 5920 5920 5920 5920 5920 5920 5920 5920
5905 5905 5905 5906 5906 5907 5907 5908 5908 5908 5908 5908 5908 5908 5908 5908 5908 5908 5908 5908 5909 5909 5909 5909 5908 5908 5908 5908 5908 5909 5909 5909 5909 5910 5910 5911 5912 5912 5912 5912 5912 5912 5913 5913 5914 5914 5914 5914 5914 5915 5915 5915 5916 5916 5917 5917 5917 5917 5917 5917 5917 5917 5916 5917 5917 5917 5917 5917 5917 5917 5917 5918 5918 5918 5918 5918 5918 5919 5919 5919 5919 5919 5919 5919 5920 5920 5921 5921 5921 5921 5921 5921 5921 5921 5921 5921 5921
5905 5905 5905 5906 5906 5907 5908 5908 5908 5908 5908 5908 5908 5908 5908 5908 5908 5908 5908 5909 5909 5909 5909 5909 5909 5909 5909 5909 5909 5909 5909 5909 5910 5910 5911 5912 5912 5913 5912 5912 5912 5913 5913 5914 5914 5914 5914 5914 5915 5915 5916 5916 5917 5917 5917 5917 5917 5917 5917 5917 5917 5917 5917 5917 5918 5918 5918 5918 5918 5918 5918 5918 5919 5919 5919 5919 5919 5920 5920 5920 5920 5920 5920 5920 5921 5921 5921 5922 5922 5922 5922 5922 5921 5921 5921 5921 5921
5904 5905 5905 5906 5907 5907 5908 5908 5909 5908 5908 5908 5908 5908 5908 5908 5908 5908 5908 5909 5909 5909 5909 5909 5910 5910 5909 5909 5909 5909 5909 5909 5910 5911 5911 5912 5913 5913 5913 5913 5913 5913 5914 5914 5914 5914 5915 5915 5915 5916 5916 5916 5917 5917 5917 5917 5917 5917 5917 5918 5918 5918 5918 5918 5918 5918 5919 5918 5919 5919 5919 5919 5920 5920 5920 5920 5921 5921 5921 5921 5921 5921 5921 5921 5922 5922 5923 5923 5922 5923 5923 5922 5922 5922 5921 5921 5921
5904 5905 5905 5905 5906 5907 5908 5908 5908 5908 5908 5908 5908 5908 5908 5908 5908 5908 5908 5909 5909 5909 5910 5909 5909 5910 5909 5909 5910 5910 5910 5910 5910 5911 5911 5912 5913 5913 5913 5913 5913 5914 5914 5914 5914 5914 5915 5915 5916 5916 5916 5916 5917 5917 5917 5917 5917 5918 5918 5918 5918 5918 5919 5919 5919 5919 5920 5919 5920 5920 5920 5920 5921 5921 5921 5922 5922 5922 5922 5923 5923 5923 5923 5923 5923 5924 5924 5924 5924 5924 5923 5923 5923 5922 5922 5922 5922
5904 5905 5905 5905 5905 5906 5908 5908 5908 5909 5908 5908 5908 5908 5907 5908 5908 5908 5908 5909 5909 5909 5909 5909 5909 5909 5909 5909 5910 5910 5910 5910 5910 5911 5911 5913 5913 5914 5914 5914 5914 5914 5914 5914 5914 5914 5915 5915 5916 5916 5916 5917 5917 5917 5917 5918 5918 5918 5919 5919 5919 5919 5920 5920 5920 5921 5921 5921 5921 5921 5922 5922 5922 5923 5923 5923 5923 5924 5924 5924 5924 5924 5924 5925 5925 5925 5925 5925 5925 5925 5924 5924 5924 5923 5923 5923 5923
5904 5904 5905 5904 5905 5906 5907 5908 5908 5908 5908 5907 5908 5907 5907 5907 5907 5908 5908 5908 5909 5909 5909 5909 5908 5908 5908 5909 5909 5910 5910 5911 5911 5911 5911 5913 5914 5914 5914 5914 5915 5915 5915 5915 5914 5914 5915 5915 5916 5916 5916 5917 5917 5917 5918 5918 5919 5919 5919 5920 5920 5920 5920 5921 5921 5922 5922 5922 5922 5923 5923 5923 5924 5924 5924 5925 5925 5925 5926 5926 5926 5926 5926 5926 5927 5927 5926 5926 5926 5926 5925 5925 5925 5925 5924 5924 5924
5904 5904 5904 5904 5905 5906 5907 5908 5907 5907 5907 5907 5908 5907 5907 5907 5907 5907 5907 5908 5908 5908 5909 5909 5909 5909 5909 5908 5909 5910 5910 5911 5911 5911 5912 5912 5913 5914 5914 5915 5915 5915 5915 5915 5915 5915 5915 5915 5916 5916 5917 5917 5918 5918 5918 5919 5919 5920 5920 5920 5921 5921 5921 5922 5922 5923 5923 5923 5924 5924 5925 5925 5925 5926 5926 5926 5927 5927 5927 5928 5928 5928 5928 5928 5928 5928 5928 5927 5927 5927 5926 5926 5926 5926 5926 5925 5925
5904 5904 5904 5904 5905 5905 5906 5907 5907 5907 5907 5907 5907 5907 5907 5907 5907 5907 5907 5907 5907 5908 5908 5908 5908 5908 5909 5909 5909 5909 5910 5911 5911 5912 5912 5912 5913 5914 5914 5915 5915 5915 5915 5915 5915 5915 5915 5916 5916 5917 5917 5918 5918 5918 5919 5920 5920 5920 5921 5921 5921 5922 5922 5923 5923 5924 5924 5924 5925 5925 5926 5926 5927 5927 5928 5928 5928 5929 5929 5929 5929 5929 5929 5929 5929 5929 5929 5929 5928 5928 5927 5927 5927 5927 5927 5926 5926
5903 5904 5904 5904 5905 5905 5906 5906 5906 5906 5907 5907 5907 5907 5907 5906 5906 5906 5906 5907 5907 5907 5908 5908 5908 5908 5909 5909 5909 5909 5910 5911 5911 5912 5912 5912 5913 5914 5914 5915 5915 5915 5915 5915 5915 5915 5916 5916 5917 5917 5918 5918 5919 5919 5919 5920 5921 5921 5922 5922 5922 5923 5923 5924 5924 5925 5925 5926 5926 5927 5927 5928 5928 5929 5929 5930 5930 5931 5931 5931 5931 5931 5931 5931 5930 5930 5930 5930 5929 5929 5928 5928 5928 5928 5928 5927 5927
5903 5903 5904 5904 5904 5905 5905 5905 5906 5906 5906 5906 5906 5906 5906 5906 5906 5906 5906 5906 5907 5907 5907 5908 5908 5908 5908 5909 5909 5909 5910 5910 5911 5912 5912 5913 5913 5914 5914 5915 5915 5915 5915 5915 5915 5916 5916 5916 5917 5918 5918 5919 5919 5919 5920 5921 5921 5922 5922 5923 5923 5924 5924 5925 5925 5926 5927 5927 5928 5928 5929 5930 5930 5930 5931 5931 5932 5932 5933 5933 5933 5933 5933 5932 5932 5931 5931 5931 5930 5930 5930 5930 5929 5929 5929 5929 5929
5902 5902 5903 5903 5903 5904 5904 5904 5905 5905 5906 5906 5906 5906 5906 5906 5906 5906 5906 5906 5906 5907 5907 5907 5907 5907 5908 5908 5909 5909 5910 5910 5910 5911 5912 5912 5913 5914 5914 5914 5915 5915 5915 5915 5915 5916 5916 5917 5917 5918 5919 5919 5920 5920 5921 5921 5922 5923 5923 5924 5924 5925 5925 5926 5926 5927 5928 5929 5929 5930 5931 5931 5932 5932 5933 5933 5933 5934 5934 5934 5934 5934 5934 5934 5933 5933 5932 5932 5932 5932 5931 5931 5930 5930 5930 5930 5930
5901 5901 5902 5903 5903 5903 5903 5903 5904 5905 5905 5906 5906 5906 5906 5906 5906 5905 5906 5906 5906 5907 5907 5907 5907 5907 5907 5907 5908 5909 5909 5910 5910 5911 5912 5912 5913 5913 5914 5914 5915 5915 5915 5915 5916 5916 5916 5917 5918 5918 5919 5920 5920 5921 5921 5922 5923 5924 5924 5925 5925 5926 5926 5927 5928 5929 5930 5930 5931 5932 5932 5933 5933 5934 5934 5935 5935 5935 5935 5935 5935 5935 5935 5935 5934 5934 5934 5933 5933 5933 5932 5932 5931 5931 5931 5931 5931
5899 5900 5901 5902 5902 5902 5902 5902 5903 5904 5905 5905 5906 5906 5906 5905 5905 5905 5905 5906 5906 5906 5906 5906 5906 5907 5907 5907 5907 5908 5908 5909 5910 5910 5911 5912 5913 5913 5914 5914 5915 5915 5915 5915 5916 5916 5917 5917 5918 5919 5919 5920 5921 5921 5922 5923 5923 5924 5925 5926 5927 5927 5928 5928 5929 5930 5931 5932 5933 5933 5934 5934 5935 5935 5936 5936 5936 5936 5937 5937 5937 5936 5936 5936 5935 5935 5935 5935 5934 5934 5934 5933 5933 5932 5932 5932 5932
5898 5898 5900 5900 5901 5901 5901 5902 5903 5904 5904 5905 5905 5906 5905 5905 5905 5905 5905 5905 5905 5905 5905 5905 5905 5906 5906 5907 5907 5907 5907 5908 5909 5910 5910 5911 5912 5913 5913 5914 5915 5915 5915 5915 5916 5916 5917 5918 5918 5919 5920 5920 5921 5922 5923 5923 5924 5925 5926 5927 5928 5928 5929 5930 5930 5931 5932 5933 5934 5934 5935 5936 5936 5937 5937 5937 5937 5938 5938 5938 5938 5937 5937 5937 5936 5936 5937 5937 5936 5935 5935 5934 5933 5933 5933 5932 5933
5897 5897 5899 5900 5900 5900 5901 5902 5903 5903 5904 5904 5905 5905 5905 5905 5905 5905 5905 5905 5905 5905 5905 5905 5905 5905 5905 5906 5906 5906 5906 5907 5908 5909 5910 5911 5911 5912 5913 5914 5914 5915 5915 5915 5916 5917 5917 5918 5919 5919 5920 5921 5922 5922 5923 5924 5925 5926 5927 5927 5928 5929 5930 5931 5932 5932 5933 5934 5935 5935 5936 5937 5937 5938 5938 5938 5938 5939 5939 5939 5939 5939 5938 5938 5938 5938 5938 5938 5936 5936 5936 5935 5934 5934 5933 5933 5933
5896 5896 5897 5898 5899 5900 5901 5902 5902 5903 5903 5904 5904 5904 5904 5904 5904 5905 5905 5905 5905 5904 5904 5904 5904 5904 5904 5905 5906 5906 5906 5906 5907 5908 5909 5910 5911 5911 5912 5913 5913 5914 5915 5915 5916 5917 5917 5918 5919 5920 5920 5921 5922 5923 5923 5924 5925 5926 5927 5928 5929 5930 5931 5932 5933 5934 5935 5935 5936 5936 5937 5937 5938 5938 5939 5939 5939 5940 5940 5940 5940 5940 5939 5939 5939 5939 5939 5938 5937 5936 5937 5936 5935 5935 5935 5934 5934
5894 5894 5896 5897 5898 5900 5901 5902 5902 5902 5903 5903 5904 5904 5904 5904 5904 5904 5905 5904 5905 5904 5903 5902 5903 5903 5903 5904 5904 5905 5906 5906 5906 5907 5908 5909 5910 5911 5911 5912 5913 5914 5915 5915 5916 5917 5918 5919 5920 5920 5921 5922 5923 5923 5924 5925 5926 5927 5928 5929 5930 5931 5932 5933 5934 5935 5936 5936 5937 5937 5938 5938 5939 5939 5939 5940 5940 5941 5941 5941 5941 5941 5940 5940 5940 5939 5939 5939 5938 5938 5938 5937 5936 5936 5936 5935 5935
5892 5893 5895 5896 5898 5899 5900 5901 5902 5902 5903 5903 5903 5904 5904 5904 5903 5904 5904 5904 5904 5903 5903 5902 5902 5902 5903 5903 5904 5904 5905 5905 5906 5906 5907 5908 5908 5910 5910 5911 5912 5913 5914 5915 5916 5917 5918 5919 5920 5921 5922 5922 5923 5924 5924 5925 5926 5928 5929 5930 5931 5932 5933 5934 5935 5936 5936 5937 5938 5938 5939 5939 5940 5940 5940 5940 5941 5941 5941 5942 5942 5942 5941 5941 5941 5941 5940 5940 5940 5939 5938 5938 5937 5937 5937 5937 5936
5890 5891 5893 5895 5897 5898 5899 5900 5901 5902 5902 5903 5903 5903 5903 5903 5903 5903 5904 5904 5903 5903 5903 5902 5901 5902 5902 5902 5903 5903 5904 5905 5905 5905 5906 5907 5908 5909 5909 5910 5911 5913 5914 5915 5916 5917 5918 5920 5921 5921 5922 5923 5924 5924 5925 5926 5927 5928 5929 5930 5932 5933 5934 5935 5936 5937 5937 5938 5939 5939 5940 5940 5940 5941 5941 5941 5942 5942 5942 5942 5942 5942 5942 5942 5941 5941 5941 5941 5940 5940 5939 5938 5938 5938 5938 5938 5937
5888 5890 5892 5894 5896 5897 5898 5899 5900 5901 5902 5902 5903 5903 5903 5903 5902 5902 5903 5903 5903 5903 5903 5902 5902 5901 5901 5902 5902 5903 5903 5904 5905 5905 5906 5906 5907 5908 5909 5910 5911 5912 5914 5915 5916 5917 5918 5920 5921 5922 5923 5924 5924 5925 5926 5926 5928 5929 5930 5931 5932 5934 5935 5936 5937 5938 5938 5939 5939 5940 5941 5941 5941 5942 5942 5942 5942 5943 5943 5943 5943 5943 5942 5942 5942 5942 5941 5941 5940 5940 5939 5939 5939 5939 5939 5939 5938
5886 5888 5890 5892 5894 5896 5898 5898 5899 5901 5901 5902 5902 5902 5903 5903 5902 5902 5902 5902 5902 5902 5902 5902 5902 5901 5901 5901 5902 5902 5903 5903 5904 5904 5905 5906 5906 5907 5908 5909 5911 5912 5914 5915 5915 5917 5918 5920 5921 5922 5923 5924 5925 5926 5926 5927 5928 5929 5931 5932 5933 5934 5935 5937 5938 5938 5939 5940 5940 5941 5941 5941 5942 5942 5942 5943 5943 5943 5944 5944 5944 5943 5943 5943 5942 5942 5942 5941 5941 5940 5940 5940 5939 5939 5939 5939 5938
5885 5887 5889 5890 5893 5895 5896 5897 5898 5900 5900 5901 5901 5901 5902 5902 5901 5901 5901 5901 5901 5901 5901 5901 5901 5901 5901 5901 5901 5902 5902 5902 5903 5904 5904 5905 5906 5906 5907 5908 5910 5912 5913 5914 5915 5916 5918 5920 5921 5922 5923 5924 5925 5926 5927 5928 5929 5930 5931 5932 5934 5935 5936 5937 5938 5939 5940 5940 5940 5941 5941 5942 5942 5942 5943 5943 5943 5944 5944 5944 5944 5944 5944 5943 5943 5942 5942 5941 5941 5941 5941 5940 5940 5939 5939 5939 5938
5883 5885 5887 5889 5892 5893 5894 5896 5897 5898 5899 5900 5900 5900 5901 5901 5900 5900 5900 5900 5900 5900 5900 5900 5901 5901 5901 5901 5901 5901 5901 5902 5902 5903 5903 5904 5905 5906 5906 5908 5910 5912 5913 5914 5915 5916 5918 5919 5920 5922 5923 5924 5925 5927 5928 5929 5930 5931 5932 5933 5934 5935 5936 5937 5938 5939 5940 5940 5941 5941 5942 5942 5942 5943 5943 5943 5944 5944 5944 5945 5945 5944 5944 5943 5943 5942 5942 5941 5941 5941 5941 5940 5940 5939 5939 5939 5938
5881 5884 5886 5888 5890 5892 5893 5894 5895 5897 5898 5899 5899 5899 5900 5900 5899 5899 5899 5900 5900 5900 5899 5899 5900 5900 5900 5901 5901 5901 5901 5901 5901 5902 5903 5904 5905 5905 5906 5907 5909 5911 5913 5914 5915 5916 5918 5919 5920 5922 5923 5924 5926 5927 5928 5929 5930 5932 5933 5934 5935 5936 5937 5938 5938 5939 5940 5941 5941 5942 5942 5942 5943 5943 5943 5944 5944 5944 5945 5945 5945 5944 5944 5943 5943 5942 5941 5941 5940 5940 5940 5940 5940 5940 5939 5939 5938
5880 5882 5884 5885 5887 5889 5891 5892 5893 5895 5896 5897 5897 5897 5898 5898 5898 5898 5899 5899 5900 5900 5899 5899 5899 5899 5899 5900 5900 5901 5901 5901 5901 5901 5902 5903 5904 5905 5906 5907 5909 5911 5913 5914 5915 5916 5918 5919 5920 5922 5923 5925 5926 5927 5929 5930 5931 5932 5933 5934 5935 5936 5937 5938 5939 5939 5940 5941 5941 5942 5942 5942 5943 5943 5944 5944 5944 5945 5945 5945 5945 5944 5944 5943 5943 5942 5941 5941 5940 5940 5940 5940 5940 5940 5939 5939 5938
5879 5881 5882 5884 5886 5887 5889 5890 5891 5893 5895 5895 5895 5896 5896 5897 5897 5897 5898 5899 5899 5899 5899 5899 5899 5899 5899 5899 5899 5900 5900 5901 5901 5901 5902 5903 5904 5905 5906 5907 5909 5911 5913 5914 5915 5917 5918 5919 5920 5922 5923 5925 5926 5928 5929 5930 5932 5933 5934 5935 5936 5936 5937 5938 5939 5939 5940 5941 5941 5942 5942 5943 5943 5943 5944 5944 5944 5945 5945 5945 5945 5945 5944 5944 5943 5942 5941 5940 5940 5940 5940 5940 5940 5940 5939 5939 5939
5877 5879 5881 5883 5884 5886 5887 5887 5889 5892 5893 5894 5895 5894 5894 5895 5896 5896 5897 5897 5899 5899 5899 5899 5899 5899 5899 5898 5898 5899 5899 5900 5901 5901 5902 5903 5904 5905 5906 5907 5909 5910 5912 5914 5915 5917 5918 5919 5921 5922 5923 5925 5926 5928 5929 5930 5931 5932 5934 5935 5935 5936 5937 5938 5939 5939 5940 5941 5941 5942 5942 5943 5943 5943 5944 5944 5945 5945 5945 5945 5945 5945 5945 5944 5943 5942 5942 5941 5940 5940 5940 5940 5940 5940 5939 5939 5939
5875 5877 5879 5881 5882 5884 5884 5884 5887 5890 5891 5892 5893 5893 5893 5894 5895 5895 5895 5896 5897 5898 5899 5899 5899 5899 5899 5898 5898 5898 5898 5899 5900 5901 5901 5902 5903 5904 5906 5907 5909 5910 5912 5913 5915 5917 5918 5919 5920 5922 5923 5925 5926 5927 5929 5930 5931 5932 5933 5934 5935 5936 5937 5938 5939 5940 5940 5941 5941 5942 5942 5943 5943 5943 5944 5944 5945 5945 5945 5945 5945 5945 5945 5944 5944 5943 5942 5941 5941 5940 5940 5940 5940 5939 5939 5940 5939
5873 5875 5877 5878 5879 5882 5882 5881 5885 5887 5888 5890 5891 5891 5892 5893 5893 5894 5894 5895 5896 5897 5898 5898 5898 5898 5898 5898 5897 5897 5897 5897 5899 5900 5901 5902 5903 5904 5905 5907 5908 5910 5911 5913 5914 5916 5917 5918 5920 5921 5922 5924 5925 5926 5928 5929 5931 5932 5933 5934 5935 5936 5937 5938 5939 5940 5940 5941 5941 5942 5942 5943 5943 5944 5944 5944 5945 5945 5945 5945 5945 5945 5945 5945 5944 5943 5942 5942 5941 5941 5940 5940 5940 5940 5940 5940 5939
5870 5872 5873 5875 5878 5880 5879 5879 5883 5884 5885 5888 5888 5889 5890 5891 5891 5892 5893 5894 5894 5895 5896 5896 5896 5896 5897 5897 5896 5896 5896 5896 5897 5899 5900 5901 5902 5903 5905 5906 5908 5909 5910 5912 5913 5915 5916 5917 5919 5920 5922 5923 5924 5926 5927 5929 5930 5932 5933 5934 5935 5936 5937 5938 5939 5939 5940 5940 5941 5941 5942 5942 5943 5943 5944 5944 5944 5945 5945 5945 5945 5945 5945 5945 5944 5943 5943 5942 5942 5941 5941 5940 5940 5940 5940 5940 5940
5866 5868 5870 5874 5876 5877 5877 5878 5879 5880 5882 5885 5886 5887 5889 5889 5890 5891 5891 5892 5893 5894 5894 5895 5895 5896 5896 5895 5895 5895 5894 5895 5896 5897 5899 5900 5901 5902 5904 5905 5907 5909 5910 5911 5913 5914 5916 5917 5918 5919 5920 5922 5923 5925 5926 5928 5930 5932 5933 5934 5935 5936 5937 5938 5938 5939 5940 5940 5941 5941 5941 5942 5943 5943 5943 5944 5944 5944 5944 5945 5945 5945 5945 5944 5944 5943 5943 5942 5942 5941 5941 5940 5940 5940 5940 5940 5940
5862 5865 5867 5871 5872 5873 5875 5873 5873 5878 5880 5882 5884 5884 5886 5887 5888 5890 5889 5889 5890 5892 5892 5894 5894 5895 5895 5894 5895 5895 5894 5894 5894 5895 5897 5899 5901 5902 5903 5904 5906 5908 5909 5911 5912 5913 5914 5915 5917 5918 5919 5921 5922 5924 5926 5928 5929 5931 5932 5933 5934 5936 5936 5937 5938 5938 5939 5940 5941 5941 5942 5942 5942 5943 5943 5944 5944 5944 5944 5944 5945 5945 5945 5944 5943 5943 5943 5942 5942 5941 5941 5941 5940 5940 5940 5940 5939
5860 5862 5865 5868 5868 5869 5871 5870 5872 5877 5877 5879 5880 5880 5882 5885 5887 5887 5886 5886 5888 5889 5890 5892 5893 5894 5894 5895 5895 5895 5895 5894 5893 5894 5896 5898 5900 5901 5902 5904 5905 5907 5908 5910 5911 5912 5913 5914 5915 5917 5918 5920 5922 5923 5925 5927 5928 5930 5931 5932 5933 5934 5935 5936 5938 5939 5940 5940 5941 5941 5941 5942 5942 5943 5943 5943 5943 5944 5944 5944 5944 5944 5944 5944 5943 5943 5942 5942 5942 5942 5941 5941 5940 5940 5940 5940 5939
5856 5859 5862 5863 5863 5866 5868 5869 5872 5873 5874 5875 5874 5875 5879 5881 5882 5882 5882 5884 5885 5887 5889 5890 5892 5893 5894 5895 5895 5895 5894 5893 5893 5894 5895 5896 5898 5900 5902 5903 5904 5906 5907 5908 5910 5911 5912 5913 5914 5916 5917 5919 5921 5923 5925 5926 5927 5929 5929 5931 5932 5933 5935 5936 5937 5938 5939 5940 5940 5941 5941 5941 5942 5942 5942 5943 5943 5943 5943 5944 5944 5944 5944 5943 5943 5942 5942 5942 5942 5942 5941 5941 5940 5940 5939 5939 5939
5853 5856 5858 5858 5860 5863 5866 5867 5868 5868 5871 5869 5868 5873 5875 5875 5878 5879 5879 5882 5882 5884 5887 5889 5890 5892 5893 5894 5894 5895 5895 5893 5892 5893 5894 5895 5897 5899 5900 5902 5903 5904 5906 5907 5909 5910 5911 5912 5913 5915 5917 5918 5920 5922 5923 5925 5926 5927 5928 5929 5931 5932 5934 5935 5936 5937 5938 5939 5940 5940 5940 5941 5941 5941 5942 5942 5942 5943 5943 5943 5943 5943 5943 5943 5942 5942 5942 5942 5942 5941 5941 5941 5940 5940 5939 5939 5938
5851 5852 5854 5856 5858 5860 5862 5863 5864 5865 5866 5864 5866 5871 5869 5870 5876 5876 5876 5879 5880 5882 5886 5887 5889 5890 5891 5892 5893 5894 5894 5894 5893 5892 5893 5894 5896 5898 5899 5900 5902 5903 5905 5906 5908 5909 5910 5911 5913 5914 5916 5918 5919 5921 5922 5923 5924 5925 5927 5928 5929 5931 5932 5934 5935 5936 5937 5938 5939 5939 5939 5940 5940 5941 5941 5942 5942 5942 5943 5943 5943 5943 5943 5943 5942 5942 5942 5942 5942 5942 5941 5941 5940 5940 5939 5938 5938
5846 5847 5850 5853 5854 5856 5858 5857 5860 5862 5859 5858 5863 5866 5864 5866 5871 5873 5872 5875 5877 5881 5884 5886 5887 5888 5889 5890 5891 5892 5893 5894 5894 5893 5892 5893 5894 5896 5898 5899 5901 5903 5904 5906 5907 5908 5910 5911 5912 5914 5915 5917 5918 5920 5921 5922 5923 5924 5925 5926 5927 5929 5930 5932 5933 5934 5935 5936 5937 5938 5938 5939 5940 5940 5941 5941 5942 5942 5942 5943 5942 5942 5942 5942 5942 5941 5941 5941 5942 5942 5941 5941 5940 5939 5939 5939 5938
5841 5843 5846 5848 5848 5850 5852 5852 5856 5856 5852 5854 5860 5862 5861 5861 5866 5869 5869 5871 5876 5881 5883 5884 5885 5886 5887 5888 5889 5891 5892 5893 5894 5893 5892 5892 5893 5895 5897 5899 5901 5902 5904 5905 5906 5908 5909 5911 5912 5913 5914 5916 5917 5919 5920 5921 5922 5923 5924 5925 5926 5927 5929 5930 5931 5932 5933 5934 5935 5937 5937 5938 5939 5940 5940 5941 5941 5942 5942 5942 5942 5942 5942 5942 5941 5941 5941 5941 5941 5942 5941 5941 5940 5939 5939 5939 5938
5836 5839 5842 5843 5844 5845 5847 5849 5852 5850 5849 5853 5857 5860 5860 5858 5863 5868 5868 5870 5876 5879 5880 5882 5883 5884 5885 5887 5887 5889 5890 5891 5892 5892 5892 5892 5893 5894 5896 5899 5901 5902 5903 5904 5906 5907 5909 5910 5912 5913 5914 5915 5917 5918 5919 5920 5922 5923 5923 5924 5925 5926 5927 5928 5929 5930 5931 5933 5934 5935 5936 5937 5938 5938 5939 5940 5940 5941 5941 5941 5941 5941 5941 5941 5941 5940 5940 5941 5941 5941 5941 5941 5940 5939 5939 5939 5938
5833 5836 5837 5838 5840 5842 5844 5846 5848 5847 5849 5852 5855 5857 5857 5857 5861 5865 5866 5870 5873 5875 5878 5880 5881 5882 5883 5885 5886 5887 5889 5890 5891 5892 5892 5892 5893 5894 5895 5897 5900 5901 5902 5903 5905 5906 5908 5909 5910 5912 5913 5914 5916 5917 5918 5919 5920 5921 5922 5922 5923 5924 5925 5926 5927 5928 5930 5931 5932 5933 5934 5935 5936 5937 5938 5938 5939 5940 5940 5940 5940 5940 5940 5940 5940 5940 5940 5940 5941 5941 5941 5940 5939 5939 5939 5939 5938
5830 5832 5834 5836 5838 5840 5841 5844 5845 5846 5849 5851 5852 5854 5855 5856 5858 5861 5864 5868 5870 5872 5876 5878 5879 5881 5882 5883 5884 5885 5887 5888 5890 5891 5891 5892 5892 5893 5894 5896 5898 5900 5901 5902 5904 5905 5907 5908 5909 5910 5912 5913 5914 5915 5917 5918 5919 5920 5920 5921 5922 5923 5924 5924 5925 5926 5927 5929 5930 5931 5932 5933 5934 5935 5936 5937 5938 5938 5939 5939 5939 5939 5938 5938 5939 5939 5939 5940 5940 5940 5940 5940 5939 5939 5939 5938 5938
5828 5831 5833 5834 5835 5838 5840 5842 5844 5846 5847 5849 5850 5852 5853 5855 5856 5858 5861 5864 5866 5869 5873 5875 5877 5879 5880 5881 5882 5883 5885 5887 5888 5889 5891 5892 5892 5892 5893 5894 5896 5898 5900 5902 5903 5905 5906 5907 5908 5909 5910 5911 5913 5914 5915 5916 5917 5918 5918 5919 5920 5921 5922 5923 5924 5925 5926 5927 5928 5929 5930 5931 5932 5933 5934 5935 5936 5937 5937 5937 5938 5938 5937 5937 5937 5938 5938 5939 5939 5939 5939 5939 5938 5938 5938 5938 5937
5826 5828 5828 5829 5834 5838 5839 5840 5841 5843 5845 5846 5848 5850 5852 5853 5855 5857 5859 5861 5863 5866 5869 5872 5874 5876 5878 5878 5880 5881 5883 5885 5887 5888 5890 5891 5891 5891 5892 5893 5895 5896 5898 5901 5903 5904 5905 5906 5907 5908 5909 5910 5911 5912 5913 5914 5915 5916 5917 5918 5919 5920 5921 5922 5922 5923 5924 5925 5926 5927 5928 5929 5930 5931 5932 5933 5934 5935 5935 5936 5936 5936 5936 5936 5936 5936 5937 5937 5938 5938 5938 5938 5938 5938 5937 5937 5936
5823 5823 5824 5829 5834 5835 5836 5837 5838 5840 5841 5844 5846 5848 5850 5852 5854 5856 5857 5860 5861 5864 5867 5870 5872 5874 5875 5876 5878 5880 5882 5883 5885 5887 5889 5890 5891 5891 5892 5893 5894 5895 5897 5899 5901 5903 5904 5905 5906 5907 5908 5909 5910 5911 5912 5913 5914 5914 5915 5916 5917 5919 5920 5920 5921 5921 5922 5923 5924 5925 5926 5927 5929 5930 5930 5931 5932 5933 5934 5934 5935 5935 5935 5935 5935 5935 5935 5936 5936 5937 5937 5937 5937 5937 5936 5936 5936
5817 5819 5823 5828 5829 5829 5830 5832 5834 5836 5838 5842 5845 5846 5848 5851 5853 5854 5856 5858 5860 5862 5865 5868 5870 5871 5872 5874 5877 5879 5880 5882 5884 5886 5887 5888 5890 5891 5891 5892 5893 5895 5896 5897 5899 5900 5902 5903 5904 5905 5907 5908 5909 5910 5911 5911 5912 5913 5914 5915 5916 5917 5918 5919 5919 5920 5920 5921 5922 5923 5924 5925 5926 5927 5928 5930 5931 5931 5932 5933 5933 5933 5934 5934 5934 5934 5934 5934 5935 5935 5936 5936 5936 5936 5935 5935 5935
5811 5816 5819 5820 5821 5824 5826 5828 5831 5834 5836 5840 5842 5844 5847 5849 5851 5853 5855 5856 5858 5861 5863 5865 5867 5868 5870 5873 5875 5877 5879 5881 5882 5884 5886 5887 5889 5890 5891 5893 5894 5894 5895 5896 5897 5898 5900 5901 5902 5904 5905 5906 5907 5907 5909 5910 5911 5912 5913 5914 5915 5916 5917 5917 5918 5919 5919 5920 5920 5921 5922 5923 5923 5925 5926 5928 5929 5930 5930 5931 5931 5932 5932 5932 5933 5933 5933 5933 5933 5934 5934 5934 5934 5934 5934 5934 5934
5806 5810 5811 5813 5817 5820 5822 5826 5830 5833 5835 5838 5840 5842 5844 5846 5848 5850 5852 5854 5857 5858 5860 5862 5864 5866 5868 5871 5873 5875 5877 5879 5881 5883 5884 5886 5888 5889 5891 5892 5893 5894 5895 5895 5896 5897 5898 5899 5900 5902 5903 5904 5905 5906 5908 5909 5910 5911 5912 5913 5913 5914 5915 5915 5916 5917 5917 5918 5918 5919 5920 5920 5921 5923 5924 5926 5927 5928 5928 5929 5929 5930 5930 5931 5931 5931 5931 5931 5931 5932 5932 5932 5933 5933 5933 5933 5933
5802 5805 5805 5808 5813 5816 5818 5822 5826 5829 5832 5835 5837 5839 5842 5843 5845 5847 5849 5851 5853 5855 5857 5859 5861 5863 5866 5868 5871 5873 5875 5878 5880 5881 5883 5884 5886 5887 5888 5889 5890 5891 5892 5893 5894 5896 5897 5898 5899 5900 5901 5902 5903 5905 5906 5907 5908 5909 5910 5911 5911 5912 5912 5913 5914 5914 5915 5916 5916 5917 5918 5918 5919 5920 5922 5923 5925 5926 5926 5927 5927 5928 5928 5929 5929 5929 5930 5929 5930 5930 5930 5930 5930 5931 5931 5931 5931
5799 5803 5804 5808 5813 5814 5816 5818 5822 5826 5830 5832 5834 5837 5840 5841 5843 5844 5846 5848 5850 5852 5854 5856 5858 5860 5863 5866 5868 5871 5874 5876 5878 5879 5881 5882 5883 5884 5885 5886 5887 5888 5890 5891 5893 5894 5895 5897 5898 5898 5899 5900 5902 5903 5904 5905 5906 5907 5908 5908 5909 5910 5910 5911 5911 5912 5913 5913 5914 5915 5915 5916 5918 5918 5919 5921 5922 5923 5924 5924 5925 5926 5926 5927 5927 5927 5928 5928 5928 5928 5928 5928 5928 5928 5929 5929 5929